sat.trackr.live / text

‹ back to catalog

UNKNOWN

NORAD 81386

UNKNOWN UNKNOWN UNKNOWN

§ Identity

Operator
Country
Launch date
Launch site
Launch vehicle
Mass (kg)
RCS (m²)

External: N2YO · Heavens-Above

§ Orbital elements

Epoch: 2026-09-11T22:03:43.237152Z

Period
100.07 min
Inclination
71.0455°
Eccentricity
0.0086283
Mean motion
14.39037542 rev/d
Perigee alt
700.1 km
Apogee alt
823.3 km
Semi-major
7,139.8 km
B*
1.0132e-3
RAAN
122.4106°
Arg perigee
10.8864°
Mean anomaly
349.4111°
Rev number
66,350

§ Raw data

UNKNOWN1 81386U          26254.91925043  .00003220  00000+0  10132-2 0  99932 81386  71.0455 122.4106 0086283  10.8864 349.4111 14.39037542663501

JSON: /api/v1/satellites/81386 · /tle

For live sub-satellite position, see the globe view (requires WebGL).

§ Visibility from observer

Set your observer location to see the next 7 days of passes ≥ 10°. The values pass through the URL so the page stays shareable.

No JS? Fill the form by hand. The geolocation button needs JavaScript.